World > North America > United States > Pennsylvania > Beaver Meadows  

Beaver Meadows, PA Hourly Weather Updates

Feedback E-mail the Weather

Quick Clicks

Beaver Meadows, PA Weather Maps

°F °C°F °C
Beaver Meadows Weather Map
UTC Time: 4/25/2024, 08:04
Your Time:

Beaver Meadows, PA Regional Weather

Expires:202404250900;;336176
ASUS41 KCTP 250803
RWRCTP

REGIONAL WEATHER ROUNDUP
NATIONAL WEATHER SERVICE STATE COLLEGE PA
400 AM EDT THU APR 25 2024

Note: "fair" indicates few or no clouds below 12,000 feet with no 
significant weather and/or obstructions to visibility.

* = STATION THAT DOES NOT REPORT PRECIPITATION /E.G. RAIN...SNOW...ETC/
    THUNDER OR FOG.


PAZ038>040-043-044-047-048-054-055-060>062-067>071-250900-
EASTERN PENNSYLVANIA
  
CITY           SKY/WX    TMP DP  RH WIND       PRES   REMARKS
TOWANDA          N/A     34  25  69 CALM      30.29R                  
SCRANTON       CLEAR     37  25  61 N5        30.21R                  
MOUNT POCONO   CLEAR     33  26  75 NW9       30.16R                  
HAZLETON       CLEAR     36  27  69 N5        30.22R                  
LEHIGHTON      CLEAR     37  30  75 CALM      30.23R                  
ALLENTOWN      MOCLDY    42  30  62 NE5       30.21R                  
QN CITY/ALNTWN PTCLDY    45  32  61 N7        30.22R                  
QUAKERTOWN*    PTCLDY    43  32  65 VRB7      30.20R                  
PERKASIE*      PTCLDY    43  34  70 CALM      30.20R                  
DOYLESTOWN     CLEAR     45  35  68 N5        30.19R                  
READING        MOCLDY    45  32  60 N9        30.20R                  
LANCASTER      PTCLDY    44  35  70 N6        30.20R                  
COATESVILLE    MOCLDY    45  37  76 N9        30.18S                  
WEST CHESTER   PTCLDY    46  36  66 N6        30.19R                  
POTTSTOWN      CLEAR     45  34  65 N6        30.21R                  
BLUE BELL      MOCLDY    45  36  71 N5        30.19R                  
NORTH PHILA    CLEAR     48  36  63 N7        30.20R                  
PHILADELPHIA   PTCLDY    49  37  63 N9        30.19R                  
$$
  

SKY/WX - Weather  TMP - Temperature  DP - Dew Point  RH - Humidity
WIND - Wind Direction/Speed PRES - Barometric Pressure VSB - Visibility
WCI - Wind Chill Index E13G22 Wind - East Wind 13 mph/Gusts of 22 mph

Trending Headlines

Trending Entertainment Headlines

Beaver Meadows Radar Loop

Use the map search tool if you want to place a location marker on the radar map...

Beaver Meadows Quick Facts

National Two Day Weather Forecast


E-mail the Beaver Meadows Weather Forecast

Voice your opinion or tell us about page issues...